Simultaneous Nadir Overpasses (SNOs) Predictions

Prediction of SNOs between AQUA and NPP Satellite Orbit:

Table of predicted SNOs for the next 14.0 days since TLE Epoch: 9/15/2014
Index Date (AQUA) Time (AQUA) Lat,Lon (AQUA) SZA (AQUA ) Date (NPP) Time (NPP) Lat,Lon (NPP) SZA (NPP ) Distance(km) Time Diff (sec)
1 09/16/2014 00:44:34 -46.03,-158.69 57.02 09/16/2014 00:44:01 -46.01,-158.54 57.01 11.92 33
2 09/16/2014 01:32:08 52.52, 11.65 117.15 09/16/2014 01:32:50 52.52, 11.65 117.08 0.05 42
3 09/18/2014 17:01:00 -46.04, -42.80 56.22 09/18/2014 17:00:57 -46.04, -42.76 56.23 2.98 3
4 09/18/2014 17:47:22 56.76, 129.70 114.13 09/18/2014 17:48:32 56.76, 129.72 114.01 1.33 70
5 09/21/2014 08:27:56 46.03, -94.53 124.59 09/21/2014 08:27:06 46.00, -94.30 124.60 18.17 50
6 09/21/2014 09:16:25 -49.62, 74.50 58.57 09/21/2014 09:16:51 -49.62, 74.51 58.62 0.38 26
7 09/24/2014 00:44:21 46.02, 21.36 125.40 09/24/2014 00:44:02 46.02, 21.47 125.38 8.97 19
8 09/24/2014 01:31:30 -54.32,-167.46 61.93 09/24/2014 01:32:25 -54.32,-167.44 62.03 1.13 55
9 09/26/2014 16:11:21 -46.02, -30.40 53.81 09/26/2014 16:10:16 -45.98, -30.09 53.80 23.80 65
10 09/26/2014 17:00:17 47.64, 137.87 124.81 09/26/2014 17:00:29 47.64, 137.90 124.76 2.41 12
11 09/26/2014 17:39:25 -80.81, 1.55 88.38 09/26/2014 17:40:39 -80.37, 2.68 88.61 53.02 74
12 09/29/2014 08:27:44 -46.05, 85.52 53.04 09/29/2014 08:27:12 -45.99, 85.68 53.02 14.41 32




NCC Satellite Simultaneous Nadir Overpasses (SNOs) Prediction Service
